Flag for Germany Weather past 2 weeks in Sonneberg, Thuringia, Germany

Now
40 °F

Fog.


Feels Like: 40 °F
Forecast: 44 / 51 °F
Wind: 1 mph from Southeast

Location: Hof

Current Time: Oct 25, 2014 at 7:54:46 AM

Latest Report: Oct 25, 2014 at 7:00 AM


Visibility: 2 mi

Pressure: 30.16 "Hg

Humidity: 99%

Dew point: 40 °F

Location of SonnebergLocation

Historic Weather in Sonneberg — Graph

°F

Sonneberg temperature yesterday

Maximum temperature yesterday: 53 °F (at 2:00 PM)
Minimum temperature yesterday: 38 °F (at 9:00 AM)
Average temperature yesterday: 45 °F

Past Weeks' High & Low Weather Summary

 TemperatureHumidityPressure
High65 °F (Oct 19, 4:00 PM)100% (Oct 13, 8:00 AM)30.29 "Hg (Oct 13, 8:00 AM)
Low36 °F (Oct 22, 9:00 AM)62% (Oct 24, 3:00 PM)29.50 "Hg (Oct 21, 9:00 PM)
Average52 °F89%29.96 "Hg
* Reported Oct 10 7:00 AM — Oct 25 7:00 AM, Sonneberg, Weather by CustomWeather, © 2014

Note: Actual official high and low records may vary slightly from our data, if they occured in-between our weather recording intervals... More about our weather records

Advertising

Sonneberg weather history for previous 24 hours

 ConditionsComfort  
Time TempWeatherWind HumidityBarometerVisibility
7:00 AM
Oct 25
40 °FFog.1 mph99%30.16 "Hg2 mi
6:00 AM41 °FFog.3 mph99%30.17 "Hg2 mi
4:00 AM40 °FFog.3 mph100%30.18 "Hg2 mi
3:00 AM39 °FFog.3 mph100%30.19 "Hg1 mi
2:00 AM39 °FFog.3 mph99%30.19 "Hg1 mi
1:00 AM40 °FFog.3 mph98%30.19 "Hg3 mi
12:00 AM41 °FFog.3 mph97%30.19 "Hg3 mi
11:00 PM
Oct 24
42 °FFog.5 mph98%30.20 "Hg3 mi
10:00 PM41 °FFog.3 mph99%30.20 "Hg3 mi
9:00 PM43 °FClear.2 mph96%30.19 "Hg5 mi
8:00 PM44 °FPassing clouds.1 mph92%30.19 "Hg8 mi
7:00 PM46 °FOvercast.1 mph84%30.18 "Hg11 mi
6:00 PM49 °FScattered clouds.1 mph77%30.16 "Hg14 mi
4:00 PM52 °FSunny.2 mph68%30.17 "Hg16 mi
3:00 PM52 °FHaze.2 mph62%30.18 "Hg17 mi
2:00 PM53 °FOvercast.1 mph65%30.19 "Hg16 mi
1:00 PM49 °FOvercast.1 mph66%30.23 "Hg17 mi
12:00 PM48 °FOvercast.1 mph76%30.24 "Hg12 mi
10:00 AM40 °FPartly sunny.1 mph100%30.29 "Hg1 mi
9:00 AM38 °FSunny.1 mph100%30.29 "Hg0 mi
8:00 AM38 °FPartly sunny.2 mph100%30.27 "Hg0 mi
7:00 AM40 °FOvercast.1 mph100%30.26 "Hg0 mi
Weather by CustomWeather, © 2014

See weather overviewHow to use our weather pages